Belmar-Farmingdale, NJ

6:16 AM EST on November 15, 2019 (GMT -0500)
Allaire

Weather History for KBLM - September, 2019

Change the Weather History Date:

Thursday, September 19, 2019

  Actual Average Record
Temperature  
Mean Temperature 57 °F -  
Max Temperature 66 °F 71 °F 84 °F (2005)
Min Temperature 48 °F 56 °F 48 °F (2013)
Degree Days  
Heating Degree Days 8    
Growing Degree Days 7 (Base 50)    
Moisture  
Dew Point 46 °F    
Average Humidity 64    
Maximum Humidity 89    
Minimum Humidity 46    
Precipitation  
Precipitation 0.00 in - - ()
Sea Level Pressure  
Sea Level Pressure 30.33 in    
Wind  
Wind Speed 6 mph ()    
Max Wind Speed 12 mph    
Max Gust Speed 16 mph    
Visibility 10.0 miles    
Events      
Averages and records for this station are not official NWS values.
T = Trace of Precipitation, MM = Missing Value Source: Averaged Metar Reports

Daily Weather History Graph

Daily Weather History Graph

Search for Another Location

Airport or City:

Astronomy

Sep. 19, 2019 Rise Set
Actual Time 6:40 AM EDT 6:59 PM EDT
Civil Twilight 6:13 AM EDT 7:26 PM EDT
Nautical Twilight 5:41 AM EDT 7:57 PM EDT
Astronomical Twilight 5:09 AM EDT 8:30 PM EDT
Moon 10:06 PM EDT (9/19) 11:42 AM EDT (9/19)
Length of Visible Light 13h 12m
Length of Day
12h 18m
Waning Gibbous, 74% of the Moon is Illuminated
Sep 19
Waning Gibbous
Sep 21
Last Quarter
Sep 28
New
Oct 5
First Quarter
Oct 13
Full

Hourly Weather History & Observations

Time (EDT) Temp. Dew Point Humidity Pressure Visibility Wind Dir Wind Speed Gust Speed Precip Events Conditions
12:56 AM 59.0 °F 45.0 °F 60% 30.31 in 10.0 mi NE 8.1 mph - N/A   Partly Cloudy
1:56 AM 57.0 °F 45.0 °F 64% 30.32 in 10.0 mi NNE 8.1 mph - N/A   Clear
2:56 AM 55.0 °F 39.9 °F 57% 30.32 in 10.0 mi NNE 6.9 mph - N/A   Clear
3:56 AM 55.0 °F 42.1 °F 62% 30.32 in 10.0 mi NE 9.2 mph - N/A   Clear
4:56 AM 55.0 °F 43.0 °F 64% 30.31 in 10.0 mi NE 8.1 mph - N/A   Clear
5:56 AM 55.0 °F 43.0 °F 64% 30.32 in 10.0 mi NE 6.9 mph - N/A   Clear
6:56 AM 48.9 °F 44.1 °F 83% 30.34 in 10.0 mi NW 5.8 mph - N/A   Clear
7:56 AM 52.0 °F 45.0 °F 77% 30.35 in 10.0 mi NNW 5.8 mph - N/A   Scattered Clouds
8:54 AM 59.0 °F 48.2 °F 67% 30.36 in 10.0 mi NNE 11.5 mph - N/A   Mostly Cloudy
8:56 AM 59.0 °F 46.9 °F 64% 30.36 in 10.0 mi NE 10.4 mph - N/A   Mostly Cloudy
9:56 AM 59.0 °F 46.9 °F 64% 30.37 in 10.0 mi NNE 6.9 mph - N/A   Overcast
10:56 AM 61.0 °F 46.0 °F 58% 30.38 in 10.0 mi ENE 10.4 mph 16.1 mph N/A   Partly Cloudy
11:56 AM 62.1 °F 45.0 °F 53% 30.37 in 10.0 mi NNE 9.2 mph - N/A   Clear
12:56 PM 63.0 °F 45.0 °F 52% 30.36 in 10.0 mi East 8.1 mph - N/A   Clear
1:56 PM 64.0 °F 46.0 °F 52% 30.35 in 10.0 mi ESE 8.1 mph - N/A   Clear
2:56 PM 64.0 °F 45.0 °F 50% 30.34 in 10.0 mi East 6.9 mph - N/A   Clear
3:56 PM 64.0 °F 43.0 °F 46% 30.32 in 10.0 mi NE 4.6 mph - N/A   Clear
4:56 PM 66.0 °F 45.0 °F 47% 30.32 in 10.0 mi SSW 3.5 mph - N/A   Clear
5:56 PM 64.9 °F 44.1 °F 47% 30.32 in 10.0 mi SSE 3.5 mph - N/A   Clear
6:56 PM 61.0 °F 48.9 °F 64% 30.31 in 10.0 mi SSE 4.6 mph - N/A   Clear
7:56 PM 57.0 °F 48.9 °F 74% 30.31 in 10.0 mi South 5.8 mph - N/A   Clear
8:56 PM 55.9 °F 48.9 °F 77% 30.30 in 10.0 mi South 4.6 mph - N/A   Clear
9:56 PM 52.0 °F 48.0 °F 86% 30.31 in 10.0 mi WSW 3.5 mph - N/A   Clear
10:56 PM 53.1 °F 48.0 °F 83% 30.30 in 10.0 mi SSW 3.5 mph - N/A   Clear
11:56 PM 51.1 °F 48.0 °F 89% 30.30 in 10.0 mi WSW 4.6 mph - N/A   Clear